Regional Weather Roundup
Issued by NWS Green Bay, WI

Home | Current Version | Previous Version | Graphics & Text | Print | Product List | Glossary Off
Versions: 1 2 3 4 5 6 7 8 9 10 11 12 13 14 15 16 17 18 19 20 21 22 23 24 25 26 27 28 29 30 31 32 33 34 35 36 37 38 39 40 41 42 43 44 45 46 47 48 49 50

000
ASUS43 KGRB 221511
RWRGRB

NORTH-CENTRAL AND NORTHEAST WISCONSIN REGIONAL WEATHER ROUNDUP
NATIONAL WEATHER SERVICE GREEN BAY WI
1000 AM CDT MON MAY 22 2017

WIZ005-009-010>012-018-019-221600-
NORTH CENTRAL WISCONSIN

CITY           SKY/WX    TMP DP  RH WIND       PRES   REMARKS
IRONWOOD       CLOUDY    48  43  82 SW12      29.77S
MANITOWISH WTR DRIZZLE   44  44 100 SW9       29.79S
ARBOR VITAE    PTSUNNY   49  45  85 W8        29.79S
EAGLE RIVER    CLOUDY    46  43  91 W12G18    29.79S
LAND O LAKES   CLOUDY    48  42  80 W7        29.79F
RHINELANDER    CLOUDY    49  43  80 W10       29.82S
PHILLIPS       CLOUDY    48  43  84 SW10G16   29.80S
ANTIGO         CLOUDY    49  44  82 W15       29.84F
TOMAHAWK       CLOUDY    49  41  74 SW7G16    29.83S
MERRILL        CLOUDY    51  45  79 SW13      29.84F
$$

WIZ013-073-221600-
NORTHEAST WISCONSIN

CITY           SKY/WX    TMP DP  RH WIND       PRES   REMARKS
IRON MOUNTAIN  CLOUDY    49  40  71 W16G23    29.78S
MARINETTE      CLOUDY    53  43  68 W10G16    29.84S
OCONTO         PTSUNNY   55  42  62 W17       29.86R
$$

WIZ017-030-035>037-045-221600-
CENTRAL WISCONSIN

CITY           SKY/WX    TMP DP  RH WIND       PRES   REMARKS
MEDFORD        CLOUDY    50  43  76 W12G17    29.84S
WAUSAU         PTSUNNY   53  43  68 W17G23    29.84F
MOSINEE        PTSUNNY   52  45  76 W12       29.87F
MARSHFIELD     SUNNY     54  44  69 SW14      29.86S
WISC RAPIDS    MOSUNNY   57  43  59 W13G18    29.90S
STEVENS POINT  MOSUNNY   53  41  62 W9G16     29.88F
WAUPACA        SUNNY     58  43  56 SW13G18   29.90F
SHAWANO        CLOUDY    55  43  64 W10G18    29.87S
CLINTONVILLE   PTSUNNY   54  41  62 W15       29.88S
WAUTOMA        SUNNY     57  44  62 SW10      29.91F
$$

WIZ038-039-048-051-221600-
FOX VALLEY

CITY           SKY/WX    TMP DP  RH WIND       PRES   REMARKS
NWS GREEN BAY  PTSUNNY   54  46  74 W17G25    29.90R
APPLETON       PTSUNNY   54  39  58 SW18      29.89S
OSHKOSH        SUNNY     55  43  63 W10       29.91S
FOND DU LAC    MOSUNNY   58  42  55 W10       29.93S
$$

WIZ022-050-052-221600-
EAST CENTRAL WISCONSIN

CITY           SKY/WX    TMP DP  RH WIND       PRES   REMARKS
EPHRAIM        PTSUNNY   50  46  84 W10G17    29.83S
WASHINGTON ISL CLOUDY    48  45  87 SW12      29.82R
STURGEON BAY   CLOUDY    52  43  71 W16G23    29.86R
MANITOWOC      PTSUNNY   55  42  61 W17G24    29.91S
SHEBOYGAN      SUNNY     57  45  64 W14       29.92S
$$

LMZ563-521-522-541>543-221600-
LAKESHORE

STATION/POSITION TIME  TEMP    WIND        PRES    VSBY  WAVE
                       AIR SEA DIR/SP/G                  HT/PER
                 (UTC) (F)     (DEG/KT/KT) (MB)    (MI)  (FT/S)
SHEBOYGAN LKSHOR 1500   55     270/ 13/ 15 1013.1F
KEWAUNEE LKSHORE 1448   53     260/ 15/ 20 1011.5R
NORTHPORT PIER   1440   51     260/  4/ 15 1010.2R
N MID LAKE BUOY  1450   42 39  220/ 12/ 14 1010.8R         3/ 5
CHAMBERS ISLAND  1430   51     220/  7/ 12 1009.8S
MENOMINEE LKSHOR 1448          240/ 14/ 19 1009.7S
$$




USA.gov is the U.S. government's official web portal to all federal, state and local government web resources and services.